Location: Framzelle
(50.8644°N, 1.5922°E)
Time: 06:51:11
(UTC+00:00)

Daily predictions for brighter satellites

Satellite Brightness Start Highest point End
(mag) Time Altitude Azimuth Time Altitude Azimuth Time Altitude Azimuth
Cosmos 1633 Rocket 3.9 20:02:01 10° N 20:06:05 35° ENE 20:10:07 10° SE
Cosmos 1386 Rocket 4.5 20:00:12 10° N 20:06:14 75° E 20:12:19 10° SSE
SPOT 5 4.5 20:02:58 10° ESE 20:06:59 24° ENE 20:11:08 10° N
ERBS 4.1 20:05:08 10° WNW 20:08:08 31° NNW 20:11:09 10° NE
ARIANE 5 R/B 3.8 20:06:49 10° ESE 20:10:29 28° ENE 20:14:11 10° N
Terra 3.6 20:07:55 10° E 20:11:04 18° ENE 20:14:14 10° NNE
USA 290 2.2 20:07:53 10° NNW 20:11:09 83° ENE 20:14:23 10° SSE
Intercosmos 25 Rocket 4.4 20:06:16 10° NNW 20:13:25 75° W 20:17:43 10° S
ERS-1 Rocket 4.2 20:11:17 10° ESE 20:15:27 27° ENE 20:19:37 10° N
Cosmos 1745 Rocket 4.0 20:09:33 10° N 20:15:48 88° ENE 20:21:58 10° S
IGS 5A 3.5 20:12:12 10° SSE 20:16:19 68° ENE 20:20:28 10° N
Cosmos 1709 Rocket 4.1 20:12:26 10° N 20:18:29 58° ENE 20:24:29 10° SSE
Resurs 1-3 4.1 20:14:14 10° S 20:18:34 62° WSW 20:22:57 10° NNW
Cosmos 1437 4.4 20:17:58 10° SE 20:19:35 14° E 20:21:14 10° NE
Cosmos 1933 3.5 20:16:18 10° S 20:20:15 55° E 20:24:13 10° NNE
Cosmos 1503 Rocket 4.2 20:16:09 10° S 20:21:05 47° ESE 20:26:05 10° NNE
X-37B 1.9 20:19:01 10° WSW 20:21:46 26° S 20:24:16 11° SE
Cosmos 1437 Rocket 2.9 20:19:08 10° SSW 20:23:01 80° WNW 20:27:01 10° N
USA 305 3.3 20:20:11 10° WNW 20:24:25 63° NNE 20:28:40 10° E
Cosmos 2221 4.4 20:20:43 10° SW 20:24:40 34° WNW 20:28:41 10° N
Cosmos 2082 Rocket 3.5 20:22:00 10° NNW 20:26:51 28° NE 20:31:40 10° ESE
Cosmos 1500 4.1 20:23:40 10° N 20:27:05 32° ENE 20:30:08 12° SE
COSMOS 2406 3.9 20:21:57 10° NNW 20:27:24 45° NE 20:32:38 11° ESE
CARTOSAT-1 4.4 20:23:35 10° SE 20:27:27 35° ENE 20:31:25 10° N
Meteor 1-20 Rocket 4.3 20:24:43 10° NNW 20:30:24 84° W 20:35:56 10° S
Cosmos 1666 Rocket 3.6 20:28:18 10° N 20:32:44 74° ENE 20:37:06 10° SSE
Ariane Rocket 4.0 20:28:19 10° S 20:33:09 46° W 20:38:03 10° NNW
Meteor 2-17 Rocket 4.5 20:28:50 10° N 20:35:03 79° E 20:41:12 10° SSE
S3M 4.2 20:32:07 10° S 20:38:31 85° W 20:44:53 10° N
Cosmos 2315 Rocket 4.2 20:33:45 10° S 20:39:58 58° E 20:46:14 10° NNE
Cosmos 1782 3.0 20:37:00 10° S 20:40:52 51° E 20:44:45 10° NNE
Landsat 7 3.9 20:36:22 10° SSE 20:41:07 80° WSW 20:45:55 10° NNW
Gbstr 26 Del rocket 4.4 20:33:11 10° W 20:41:09 87° N 20:47:59 10° E
USA 306 3.1 20:39:24 10° WNW 20:43:39 69° NNE 20:47:55 10° E
USA 245 2.1 20:42:52 19° SSE 20:44:17 54° ENE 20:46:29 10° N
Cosmos 1602 3.9 20:46:22 10° NNW 20:50:15 75° W 20:54:02 10° S
SPOT 1/Viking Rocket 3.6 20:45:30 10° SSE 20:50:40 88° ENE 20:55:54 10° NNW
Sich 1 4.1 20:48:03 10° NNW 20:52:11 44° W 20:56:19 10° SSW
Cosmos 1354 Rocket 4.0 20:47:45 10° SSW 20:52:57 73° ESE 20:58:13 10° NNE
SJ 16-02 2.8 20:52:11 16° SE 20:53:59 20° E 20:57:13 10° NE
Cosmos 2278 Rocket 3.0 20:50:06 11° SSE 20:54:39 30° ESE 20:59:30 10° NE
NOSS 3-4 (A) 4.2 20:50:02 10° NW 20:56:42 59° NE 21:03:32 13° ESE
NOSS 3-4 (C) 4.2 20:50:09 10° NW 20:56:49 59° NE 21:03:39 13° ESE
Resurs 01 Rocket 2.7 20:54:16 10° S 20:58:29 42° W 21:02:44 10° NNW
CRYOSAT 2 4.4 20:56:27 10° S 21:01:21 86° W 21:06:17 10° N
Cosmos 1844 Rocket 3.4 20:58:39 10° SW 21:04:08 56° NW 21:09:40 10° NNE
SPOT 3 Rocket 4.4 20:59:46 10° S 21:04:43 46° W 21:09:42 10° NNW
NOSS 3-3 (A) 4.0 21:02:12 10° SSW 21:07:51 57° SE 21:14:19 10° NE
NOSS 3-3 (C) 4.0 21:02:18 10° SSW 21:07:58 57° SE 21:14:26 10° NE
USA 307 2.9 21:05:09 10° WNW 21:09:27 81° NNE 21:12:48 16° ESE
ATLAS 2AS CENTAUR R/B 3.5 21:02:50 10° NW 21:10:12 50° NNE 21:16:52 11° ESE
CREW DRAGON DEMO-1 DEB 2.3 21:11:30 10° WNW 21:14:10 79° SSW 21:15:13 32° ESE
Cosmos 1151 Rocket 3.3 21:10:51 10° SSW 21:15:12 72° WNW 21:19:36 10° N
BREEZE-M R/B 1.8 21:15:01 10° WSW 21:17:24 50° SSE 21:18:27 28° ESE
CZ-4C R/B 3.0 21:10:26 10° NW 21:17:31 80° SW 21:23:48 19° SE
Cosmos 1536 4.2 21:14:02 10° N 21:17:31 27° ENE 21:19:22 19° ESE
Cosmos 1812 2.7 21:16:50 20° S 21:19:22 62° E 21:23:12 10° NNE
USA 215 4.0 21:13:41 10° E 21:20:01 54° N 21:26:21 10° WNW
Iridium 4 Rocket 3.9 21:18:17 18° SSE 21:22:34 62° E 21:28:25 10° N
USA 308 2.9 21:18:40 10° WNW 21:22:59 90° W 21:25:48 21° ESE
JB-3 4.2 21:19:13 10° NNE 21:23:09 75° ESE 21:25:57 18° S
ATLAS 5 CENTAUR R/B 3.4 21:18:44 10° WNW 21:23:53 37° WSW 21:28:41 15° S
Cosmos 1538 Rocket 4.0 21:19:57 10° NNW 21:25:22 87° ENE 21:28:51 22° SSE
Meteor 1-5 Rocket 4.1 21:21:31 10° NNW 21:26:59 86° W 21:30:46 20° S
Cosmos 2084 3.3 21:25:35 10° SSW 21:29:41 64° SE 21:33:55 10° NE
Cosmos 158 Rocket 4.0 21:24:57 10° NNW 21:29:49 62° ENE 21:32:38 25° SE
Cosmos 1666 2.5 21:29:22 10° N 21:33:08 88° E 21:34:56 29° S
Cosmos 1833 Rocket 2.8 21:30:13 10° NNW 21:35:52 70° WSW 21:39:27 23° SSE
Cosmos 1515 Rocket 3.5 21:34:01 18° S 21:37:20 90° WSW 21:41:46 10° N
Cosmos 1869 Rocket 3.9 21:35:08 10° N 21:39:22 51° ENE 21:41:16 29° SE
Spot 2 Rocket 4.3 21:36:57 15° S 21:40:58 47° W 21:45:51 10° NNW
Cosmos 1743 4.1 21:38:13 10° NNE 21:41:29 26° ENE 21:42:43 21° E
Cosmos 1680 Rocket 4.1 21:37:35 10° NNW 21:42:46 48° ENE 21:45:47 23° ESE
SPOT 5 3.3 21:41:10 21° S 21:44:35 66° WSW 21:49:51 10° NNW
ERBS 4.1 21:41:54 10° NW 21:44:52 29° N 21:47:51 10° ENE
ARIANE 5 R/B 3.7 21:43:44 16° SSW 21:46:50 39° W 21:50:55 10° NNW
Terra 1.8 21:45:33 26° S 21:48:15 80° WSW 21:53:04 10° NNW
Cosmos 1437 4.4 21:49:27 12° SW 21:51:42 28° WNW 21:54:15 10° N
ERS-1 Rocket 3.5 21:50:40 20° S 21:53:58 53° W 21:58:55 10° NNW
deb Kosmos-1763 4.5 21:50:44 10° NNW 21:54:11 50° WSW 21:55:21 34° SSW
Cosmos 2154 Rocket 4.0 21:50:05 10° N 21:56:29 80° E 22:00:11 27° SSE
X-37B 3.2 21:56:09 10° SW 21:56:32 11° SW 21:56:32 11° SW
Cosmos 1707 Rocket 4.5 21:59:37 29° ESE 22:00:36 32° E 22:04:32 10° NNE
ALOS 2 4.4 21:59:29 16° E 22:01:31 21° ENE 22:04:51 10° NNE
Cosmos 2184 Rocket 4.2 21:58:04 10° NNW 22:04:16 67° W 22:08:19 22° S
USA 305 3.1 22:00:13 10° WNW 22:04:24 55° SSW 22:05:35 40° SSE
Cosmos 1777 Rocket 4.5 22:02:01 10° SW 22:07:10 61° WNW 22:12:21 10° NNE
Cosmos 2074 Rocket 4.4 22:04:50 10° NNW 22:11:01 59° W 22:15:13 21° SSW
Cosmos 2082 Rocket 2.3 22:05:51 10° NNW 22:11:27 70° WSW 22:14:08 32° S
COSMOS 2406 4.1 22:06:26 10° NW 22:11:40 39° WSW 22:14:42 22° SSW
Meteor 1-27 Rocket 3.8 22:12:02 27° S 22:15:18 78° E 22:21:15 10° NNE
Cosmos 44 3.8 22:10:04 10° NW 22:15:32 66° NE 22:18:22 28° ESE
Cosmos 923 Rocket 4.0 22:13:06 10° NNW 22:18:22 77° WSW 22:20:38 35° S
Nadezhda 1 Rocket 4.0 22:16:05 25° S 22:20:04 90° WNW 22:26:22 10° N
Cosmos 1898 Rocket 4.0 22:20:55 35° SE 22:22:26 44° ESE 22:27:29 10° NE
USA 306 3.3 22:19:28 10° WNW 22:23:31 43° SW 22:24:03 41° SSW
Cosmos 1271 Rocket 3.5 22:21:48 24° SW 22:23:55 51° WNW 22:27:51 10° N
Cosmos 1544 3.0 22:24:57 10° NNW 22:28:34 77° W 22:29:08 59° SSW
Gbstr 26 Del rocket 4.1 22:21:13 10° W 22:28:47 90° N 22:34:28 13° ESE
Cosmos 1733 Rocket 3.2 22:26:55 10° N 22:31:13 59° ENE 22:32:19 44° SE
SJ 16-02 2.0 22:29:06 18° SW 22:32:11 55° WNW 22:36:34 10° NNE
Cosmos 2181 Rocket 4.3 22:34:44 33° SE 22:37:10 50° E 22:43:03 10° NNE
Cosmos 1238 Rocket 3.9 22:31:04 10° N 22:37:29 71° ENE 22:39:55 36° SSE
Cosmos 2278 Rocket 2.8 22:32:53 10° SW 22:38:27 56° NW 22:44:03 10° NNE
Cosmos 1515 3.9 22:38:29 51° ESE 22:38:44 52° E 22:42:25 10° NNE
Okean 1 3.6 22:40:56 47° ESE 22:41:19 49° E 22:45:11 10° NNE
Cosmos 2228 Rocket 3.8 22:39:25 25° SW 22:41:42 48° WNW 22:46:03 10° N
Cosmos 990 Rocket 3.9 22:40:06 37° S 22:42:11 75° ESE 22:47:27 10° NNE
Cosmos 1340 Rocket 3.0 22:38:30 10° NNW 22:42:33 63° W 22:43:27 48° SSW
Cosmos 2366 rocket 4.1 22:40:47 10° N 22:46:56 66° ENE 22:49:36 35° SSE
NOSS 3-4 (A) 4.3 22:41:02 10° NW 22:47:40 48° WSW 22:50:58 30° S
NOSS 3-4 (C) 4.3 22:41:08 10° NW 22:47:47 48° WSW 22:51:05 30° S
Cosmos 2369 Rocket 3.4 22:48:04 25° ESE 22:48:46 25° ESE 22:53:17 10° NE
Cosmos 2341 Rocket 4.0 22:42:24 10° N 22:48:50 83° W 22:51:45 35° S
USA 307 3.9 22:45:21 10° WNW 22:48:53 32° SW 22:48:53 32° SW
Cosmos 1536 4.1 22:50:21 10° NNW 22:53:58 32° W 22:55:05 27° WSW
Cosmos 1943 Rocket 2.5 22:52:39 39° SSE 22:54:01 47° ESE 22:59:24 10° NE
Meteor 2-9 Rocket 4.3 22:48:32 10° N 22:54:24 77° ENE 22:56:34 40° SSE
SeaSat 1 4.1 22:51:50 10° ENE 22:55:08 18° ESE 22:55:08 18° ESE
Cosmos 2112 Rocket 4.3 22:51:51 10° NNW 22:57:06 57° WSW 22:58:49 39° SSW
Cosmos 1461 4.4 22:58:11 25° ESE 22:58:11 25° ESE 23:01:27 10° ENE
ATLAS 2AS CENTAUR R/B 2.9 22:54:09 10° NW 23:01:26 61° SW 23:04:17 36° S
USA 308 4.3 22:58:59 10° W 23:01:54 26° WSW 23:01:54 26° WSW
USA 215 3.3 22:57:12 15° ESE 23:02:47 84° NNE 23:09:21 10° WNW
CZ-4C R/B 4.3 22:59:48 10° WNW 23:05:32 25° WSW 23:08:59 19° SW
RESURS DK-1 3.9 23:02:01 10° NNW 23:05:47 31° NE 23:07:43 21° E
Cosmos 2218 Rocket 4.0 23:00:09 10° N 23:06:28 90° E 23:09:04 39° S
Cosmos 1975 2.7 23:03:50 10° N 23:07:50 74° E 23:08:17 65° SE
SL-24 R/B - RUBIN 2 4.1 23:02:46 10° NW 23:08:13 57° WSW 23:09:20 46° S
Cosmos 489 Rocket 4.4 23:03:20 10° NNW 23:09:36 88° WSW 23:12:09 39° SSE
Meteor 2-4 Rocket 4.2 23:09:23 37° SE 23:11:06 48° E 23:16:31 10° NNE
Cosmos 1862 Rocket 3.4 23:13:56 59° SSW 23:14:45 87° W 23:19:06 10° N
Cosmos 1703 Rocket 4.4 23:14:30 35° ESE 23:15:00 36° E 23:19:02 10° NNE
Cosmos 1743 3.9 23:13:51 10° NNW 23:17:15 30° W 23:17:47 29° WSW
Cosmos 1900 4.3 23:18:46 47° SSW 23:20:11 75° SE 23:25:15 10° NE
Cosmos 2084 Rocket 3.4 23:16:11 10° NW 23:20:25 64° SW 23:20:45 61° SSW
ERBS 2.5 23:18:02 10° WNW 23:20:56 64° NW 23:20:56 64° NW
Terra 4.2 23:25:07 10° WSW 23:26:49 12° W 23:28:30 10° WNW
Cosmos 1937 Rocket 3.5 23:26:02 41° SW 23:27:53 79° WNW 23:33:06 10° NNE
Meteor 1-18 Rocket 4.2 23:27:33 42° SSW 23:29:34 86° W 23:35:13 10° NNE
ATLAS CENTAUR R/B 3.7 23:34:54 11° E 23:34:54 11° E 23:35:14 10° E
SL-8 Rocket 4.5 23:27:45 10° NNW 23:33:51 52° W 23:36:25 33° SSW
Cosmos 2297 3.8 23:32:11 31° SW 23:35:01 73° WNW 23:40:43 10° NNE
Thor Agena Rocket 3.9 23:30:13 10° NNE 23:35:22 54° E 23:36:39 43° SSE
Cosmos 1818 3.8 23:30:24 10° NW 23:35:45 54° WSW 23:36:53 46° SSW
Cosmos 1048 Rocket 4.1 23:31:54 10° NNW 23:37:16 70° ENE 23:39:11 40° SE
ALOS 2 2.8 23:36:53 49° SW 23:37:31 54° W 23:41:51 10° NNW
USA 281 4.4 23:32:41 10° ESE 23:38:35 38° NE 23:44:32 10° NNW
MTI 4.3 23:36:39 10° NNE 23:39:04 53° N 23:39:04 53° N
DNEPR-1 R/B 3.9 23:39:47 39° SW 23:41:55 84° SE 23:46:48 10° NE
Okean 1-7 3.0 23:42:48 60° SE 23:43:16 65° E 23:47:30 10° NNE
PSLV R/B 4.4 23:40:32 10° NNE 23:44:37 35° E 23:45:08 34° ESE
SL-08 R/B 4.4 23:38:56 10° NNW 23:45:09 82° W 23:47:30 41° S
Cosmos 44 Rocket 4.5 23:40:46 10° NW 23:45:48 44° NE 23:50:23 12° ESE
Cosmos 2082 Rocket 4.3 23:52:17 10° WNW 23:54:30 12° W 23:55:58 11° WSW
